Airfield :
LOGIN :

Register | Disclaimer

   EN    FR    IT 

 










Legend :    VFR   Marginal VFR   IFR   Intensive IFR   Very Intensive IFR
Visi :
Ceiling :
>= 8 km
>= 3000ft
5 to 8 km
1000 to 3000 ft
1500m to 5 km
500 to 1000 ft
800 to 1500m
200 to 500 ft
< 800m
< 200 ft
Symbols :   Thunderstorms  Fog  Heavy snow  Heavy precipitations  Wind > 20 kt
SIGMETs :     Misc.  Thunderstorms  Icing  Turbulence  Mountain Waves  Volcanic Ashes







- Airport Elevation : 5600 ft
- IATA code : SMV


LSZS - Samedan

CURRENT METAR :
  • 152320Z AUTO 21002KT CAVOK M12/M14 Q1033

EXPIRED METARs :
  • 152250Z AUTO VRB02KT CAVOK M11/M13 Q1033
  • 152220Z AUTO 20003KT CAVOK M10/M12 Q1033
  • 152150Z AUTO 20002KT CAVOK M10/M13 Q1033
  • 152120Z AUTO 19002KT CAVOK M10/M13 Q1033
  • 152050Z AUTO 20003KT CAVOK M10/M13 Q1033

TAF TAF LSZS
Valid from the 15 at 15:00 until the 16 at 00:00 UTC


151425Z 1515/1524 VRB03KT CAVOK TX05/1515Z
ATIS : +41 81 834 93 24
No reported NOTAMs for that airfield.



MET'MAP, your aeronautical weather chart ! - Copyright ORBIFLY December 2007 - Disclaimer

ORBIFLY MET'MAP TEAM :

Programming & Development : Alexandra Zaïnal
Concept & Development : Baudouin d'Aumeries
Co-Development & Prog : Marc-Olivier Méhu
Technical & hardware support : Manuel Goepfert

Contact : metmap@orbifly.com




SOURCES & CREDITS :

   NOAA